Temperature
24 23 23 22 21 21 22 24 24 24 23 23 23 22 21 21 20 19 19 19 19 19 19 19 19 19 19 19 19 19 19 18 18 19 18 18 18 18 18 18 18 18 18 18 18 18 18 18 18
24 23 23 22 21 21 23 24 24 24 23 23 22 22 21 20 19 19 19 19 19 19 19 19 19 19 19 19 19 19 19 19 18 18 19 19 19 18 18 18 18 18 18 18 18 18 18 18 18
24 23 22 21 22 22 23 24 24 24 24 24 23 22 21 20 19 19 19 19 19 19 19 19 19 19 19 19 19 19 19 19 19 19 19 19 19 18 18 18 18 18 18 18 18 18 18 18 18
24 23 22 21 23 24 25 25 25 24 24 23 22 21 21 20 20 20 19 19 20 19 19 19 19 19 19 19 19 19 19 19 19 19 19 19 19 18 18 18 18 18 18 18 18 18 18 18 18
24 23 22 22 24 26 26 26 25 24 24 23 22 21 20 20 20 20 20 20 20 20 19 19 19 19 19 19 19 19 19 19 19 19 19 19 19 18 18 18 18 18 18 18 18 18 18 18 18
24 23 22 23 25 26 26 26 25 24 23 22 21 21 20 20 20 20 20 20 20 20 20 19 19 19 19 19 19 19 19 19 19 19 19 19 19 19 19 19 19 19 19 19 18 18 18 18 18
24 22 23 25 25 25 26 26 25 24 23 23 22 21 20 20 20 20 20 20 20 20 20 19 19 19 19 19 19 19 19 19 19 19 19 19 19 19 19 19 19 19 19 19 19 19 18 18 18
26 23 24 25 25 25 26 26 25 24 23 23 22 21 20 21 21 20 20 20 20 20 20 19 19 19 19 19 19 19 19 19 19 19 19 19 19 19 19 19 19 19 19 19 19 19 19 18 18
27 23 24 25 25 25 26 25 25 24 23 23 23 22 21 21 21 20 20 20 20 20 20 20 19 19 19 19 19 19 19 19 19 18 18 19 19 19 18 19 19 19 18 19 19 19 19 18 18
26 24 26 27 26 26 26 25 25 24 23 23 22 22 21 21 21 20 20 20 20 20 19 19 19 19 19 19 19 19 19 18 18 18 18 18 18 18 18 18 18 18 18 18 18 18 18 18 18
27 26 27 28 28 27 26 26 25 24 22 22 22 22 22 21 21 21 20 20 20 20 20 19 19 19 19 19 19 19 19 18 18 18 18 18 18 18 18 18 18 18 18 18 18 18 18 18 18
28 28 29 28 28 28 27 26 25 24 23 23 23 22 22 22 21 21 21 20 20 20 20 19 19 19 19 19 19 19 19 19 18 18 18 18 18 18 18 18 18 18 18 18 18 18 18 18 18
28 28 29 29 28 28 27 26 25 24 24 23 23 22 22 22 21 21 21 21 20 20 20 20 19 19 19 19 19 19 19 19 18 18 18 18 18 18 18 18 18 18 18 18 18 18 18 18 18
28 28 28 28 28 28 26 26 25 24 24 23 23 23 22 22 22 21 21 21 21 20 20 20 20 19 19 19 19 19 19 19 18 18 18 18 18 18 18 18 18 18 18 18 18 18 18 18 18
29 27 27 27 28 27 26 25 25 25 24 24 23 23 23 22 22 22 22 21 21 20 20 20 20 19 19 19 19 19 19 19 19 18 18 18 18 18 18 18 18 18 18 18 18 18 18 18 18
27 26 26 27 27 27 25 24 25 25 25 24 23 23 23 22 22 22 22 21 21 21 20 20 20 20 19 19 19 19 19 19 18 18 18 18 18 18 18 18 18 18 18 18 18 18 18 18 18
25 25 25 26 27 27 25 24 25 25 25 24 24 23 23 23 22 22 22 22 21 21 21 20 20 20 20 19 19 19 19 19 19 18 18 18 18 18 18 18 18 18 18 18 18 18 18 18 18
24 25 26 26 26 27 25 24 25 25 25 24 24 23 23 23 23 22 22 22 22 21 21 20 20 20 20 19 19 19 19 19 19 19 18 18 18 18 18 18 18 18 18 18 18 18 18 18 18
26 26 26 26 27 26 25 24 25 25 25 24 24 24 23 23 23 23 22 22 22 21 21 21 20 20 20 19 19 19 19 19 19 18 18 18 18 18 18 18 18 18 18 18 18 18 18 18 17
27 26 26 26 27 26 24 24 25 25 25 25 24 24 23 23 23 23 22 22 22 22 21 21 20 20 20 20 19 19 19 19 19 18 18 18 18 18 18 18 18 18 18 18 18 18 18 17 17
27 26 26 26 26 25 25 24 24 25 25 25 24 24 24 23 23 23 22 22 22 22 21 21 21 20 20 20 19 19 19 19 19 18 18 18 18 18 19 18 18 18 18 18 18 18 18 18 17
27 28 28 27 24 23 24 22 23 23 24 24 24 24 24 24 23 23 23 22 22 22 22 21 21 21 20 20 20 19 19 19 19 19 18 18 19 19 19 18 18 18 18 18 18 18 18 18 18
28 29 28 27 24 23 23 22 22 22 23 23 24 24 24 24 24 23 23 23 23 22 22 21 21 21 20 20 20 19 19 19 19 19 19 18 19 18 18 18 18 18 18 18 18 18 18 18 18
29 27 26 23 22 22 23 22 22 22 23 24 24 24 24 24 24 23 23 23 23 22 22 21 21 21 20 20 20 19 19 19 19 19 19 19 19 18 18 18 18 18 18 18 18 18 18 18 18
27 24 23 23 22 22 22 23 22 24 24 24 24 24 24 24 24 24 23 23 23 22 22 22 21 21 21 20 20 20 20 19 19 19 19 19 19 19 19 18 18 18 18 18 18 18 18 18 18
27 24 23 24 23 22 22 23 23 24 25 26 25 25 25 24 24 24 23 23 23 23 22 22 22 21 21 21 20 20 20 20 19 19 19 19 19 19 19 18 18 18 18 18 18 18 18 18 17
28 25 24 22 22 22 22 23 24 24 25 25 25 25 25 24 24 24 24 23 23 23 23 22 22 21 21 21 20 20 20 20 20 19 19 19 19 19 19 18 18 18 18 18 18 18 18 18 17
27 25 22 22 22 22 23 23 22 23 24 24 24 24 24 24 24 24 24 24 23 23 23 22 22 22 22 21 21 20 20 20 20 20 19 19 19 19 19 18 18 18 18 18 18 18 18 17 17
27 26 22 20 21 21 22 22 24 23 23 23 23 24 24 24 24 24 24 24 24 23 23 23 22 22 21 21 21 20 20 20 20 20 20 19 19 19 19 18 18 18 18 18 18 17 17 17 17
27 25 22 23 22 20 21 22 24 23 23 23 24 24 24 24 24 24 24 24 23 23 23 23 22 22 22 21 21 21 20 20 20 20 20 19 19 19 19 19 18 18 18 18 18 18 17 17 17
Wind_Speed
12 8 3 1 3 4 4 4 7 7 6 8 10 9 8 7 4 5 3 9 9 7 7 10 10 11 11 11 12 12 13 13 13 13 13 13 14 14 15 15 15 15 16 16 16 17 16 16 16
8 5 1 2 4 4 4 5 9 10 10 12 11 11 9 6 6 7 5 7 9 8 8 10 11 11 11 11 11 12 12 12 13 13 13 13 14 14 14 15 15 16 16 16 16 16 16 15 15
7 4 2 3 3 5 5 6 10 12 11 8 7 6 5 5 5 4 6 9 8 7 8 10 11 11 11 11 11 11 12 13 13 13 13 13 14 14 15 15 15 16 16 16 16 15 15 14 13
3 2 2 3 4 4 7 9 12 12 9 9 9 7 4 4 4 7 10 10 9 6 8 10 11 11 11 10 11 12 13 13 13 13 13 13 14 14 14 15 15 15 15 15 15 14 14 13 13
1 2 3 3 5 6 9 12 12 11 6 9 11 8 5 4 9 11 11 10 9 7 7 10 11 11 10 10 11 12 12 12 13 13 13 13 14 14 14 14 14 14 14 14 13 13 12 11 11
2 2 4 4 7 8 8 11 14 15 14 12 11 8 4 8 12 11 11 9 8 8 8 9 11 11 11 11 11 12 12 12 12 13 13 13 14 14 14 14 14 13 13 12 12 12 10 10 9
3 3 3 6 8 8 8 9 11 13 12 8 8 6 5 8 11 11 10 9 7 8 7 6 8 10 10 10 10 12 12 12 13 13 13 14 14 13 13 13 13 12 12 11 11 10 9 8 7
4 3 3 4 8 7 8 8 10 13 10 11 7 7 6 8 10 11 10 8 8 7 6 6 6 7 7 8 11 12 13 13 12 12 12 13 13 13 13 12 12 11 11 10 10 9 8 6 5
3 4 3 5 8 8 11 12 9 10 12 7 6 8 10 12 11 11 9 7 7 7 5 5 5 5 6 6 8 10 11 11 11 10 11 11 9 9 9 10 11 11 10 10 9 8 7 5 4
4 5 5 5 8 11 13 15 10 9 12 10 11 11 11 11 12 12 11 10 8 7 6 5 5 4 5 6 7 6 6 6 7 7 7 7 7 7 8 9 9 10 9 8 7 7 5 4 3
5 6 5 5 9 13 12 11 8 12 10 13 15 14 11 11 11 11 10 10 9 8 7 6 6 5 5 4 5 4 4 5 5 5 6 6 6 6 6 5 5 6 7 5 5 4 3 3 3
4 3 6 7 10 12 12 10 9 9 11 15 16 15 12 11 11 10 10 9 8 8 8 7 6 5 5 4 4 5 4 4 4 5 6 6 4 4 4 3 4 4 4 4 3 3 3 3 3
5 3 5 8 11 12 13 12 11 9 13 15 15 13 12 11 10 9 10 9 9 8 7 7 6 6 5 4 3 4 4 4 4 5 5 6 4 4 3 3 3 3 4 3 3 3 3 3 4
3 5 5 8 10 11 15 10 8 11 15 15 14 12 12 12 11 9 9 9 9 9 8 7 7 6 5 4 3 3 4 5 4 4 5 7 6 4 4 3 3 3 3 4 3 4 3 3 4
4 5 4 4 7 7 12 7 9 14 15 15 14 13 12 11 11 11 11 11 10 10 9 8 8 6 6 5 4 4 4 5 4 4 5 6 6 5 4 3 2 2 3 3 3 3 3 3 4
4 4 2 1 5 5 8 6 8 12 15 13 13 13 11 10 11 11 11 10 10 10 9 8 8 7 6 5 4 4 4 4 4 4 5 6 6 6 5 3 2 2 3 3 3 3 3 3 3
4 2 1 1 3 5 5 5 8 10 13 13 12 12 12 10 10 10 11 11 10 10 10 8 7 7 6 5 4 4 4 3 4 4 4 5 5 5 4 3 2 2 3 2 2 3 4 4 3
4 2 2 3 2 5 4 5 10 10 11 12 11 11 11 12 11 10 10 11 10 10 9 8 7 7 6 4 4 3 3 2 3 3 4 5 4 4 4 3 2 3 3 2 2 3 3 3 4
7 5 4 3 3 4 4 6 9 10 10 10 9 10 11 11 10 10 11 11 11 9 9 8 8 6 5 4 3 3 2 2 2 2 4 5 4 4 3 3 3 3 3 3 3 4 4 3 3
6 5 3 2 3 4 4 4 7 9 12 13 13 12 12 11 10 10 10 11 10 10 9 8 8 8 6 5 4 3 3 2 2 2 3 5 5 5 4 3 3 3 3 3 3 4 3 2 2
5 7 7 5 2 3 4 1 4 5 6 10 12 12 13 15 15 13 12 11 11 10 10 10 9 8 7 6 4 3 3 2 2 1 1 2 4 4 3 4 3 3 3 3 3 4 4 3 1
5 8 9 8 6 1 4 2 5 5 5 10 11 12 13 14 13 13 13 12 12 11 9 9 9 8 7 7 6 5 4 3 3 2 2 1 3 3 4 4 3 3 3 3 3 3 3 4 2
6 6 6 6 5 3 2 3 5 4 7 11 12 14 15 14 15 15 14 13 12 11 10 9 8 8 7 7 7 5 4 3 2 2 2 1 1 2 3 4 3 3 2 2 2 2 2 2 3
4 5 6 5 5 1 3 3 6 6 11 12 12 14 13 13 13 13 12 11 10 10 10 9 8 7 7 7 7 7 6 5 5 4 3 2 1 1 1 3 3 2 2 2 2 2 3 2 2
5 6 3 4 3 4 4 2 7 7 8 11 13 14 13 13 13 13 13 13 12 12 10 9 9 8 8 8 7 7 7 7 6 5 4 4 2 1 1 2 2 2 2 2 2 2 2 2 2
4 9 8 5 5 3 2 3 7 5 6 7 8 10 11 11 12 14 15 14 13 13 12 11 10 8 8 8 7 6 6 5 4 5 4 4 3 3 2 2 3 2 2 2 2 2 2 2 2
4 3 8 7 4 3 3 4 6 0 3 3 6 9 11 12 13 14 14 13 13 14 13 12 11 8 8 8 7 6 6 6 5 5 4 4 3 3 3 2 3 2 2 2 2 2 2 2 2
7 7 6 6 5 3 2 3 4 2 4 4 6 10 11 11 11 12 13 13 12 12 11 11 10 10 8 8 7 7 6 5 6 5 5 4 4 3 3 3 2 2 2 2 2 2 1 1 1
1 3 6 5 6 7 4 6 6 8 7 5 4 6 10 11 12 11 11 11 11 11 11 11 10 8 8 8 7 6 6 6 6 5 5 5 4 4 4 3 3 2 2 2 2 2 2 1 0
6 6 7 5 3 5 6 6 4 8 7 7 5 4 6 10 10 10 10 9 11 11 11 11 11 10 9 7 7 6 6 6 6 6 5 5 5 4 4 3 3 2 2 2 2 2 2 2 1
Wind_Direction
168 160 149 120 55 56 78 81 96 83 67 71 78 85 84 70 99 136 168 145 140 141 139 128 118 115 110 106 106 110 109 110 110 111 112 115 115 114 115 116 115 116 117 117 118 119 120 120 121
159 155 133 58 78 81 73 100 97 97 114 105 82 81 74 68 84 112 132 145 137 136 136 126 121 117 114 111 111 113 115 114 113 114 116 119 120 119 118 118 118 117 118 118 119 120 121 122 124
165 164 95 67 99 124 122 119 110 106 107 99 91 68 66 99 104 120 144 139 127 127 131 129 121 119 118 117 117 118 119 119 118 117 117 121 124 121 119 120 120 119 119 120 121 121 122 123 126
152 110 62 81 109 123 124 120 115 108 89 79 93 74 64 101 119 134 135 132 125 125 132 130 123 121 121 122 123 122 121 122 122 122 122 123 124 123 122 122 122 122 122 122 124 124 124 125 127
115 103 70 91 108 106 111 116 113 102 93 92 95 99 91 96 121 129 133 134 130 130 133 132 128 125 123 123 125 124 122 122 123 127 128 125 125 125 124 124 125 125 124 125 126 127 128 128 127
99 81 83 105 106 101 107 113 104 101 108 106 102 106 102 128 131 136 138 140 139 137 136 137 135 130 126 124 126 128 124 123 122 126 130 127 127 126 126 127 128 128 128 130 131 131 132 133 131
132 109 126 122 110 108 117 113 111 117 119 117 119 101 115 132 144 143 141 139 134 133 131 134 140 137 131 127 129 133 128 127 126 126 130 130 131 131 130 130 132 133 135 137 136 137 140 140 136
167 100 86 110 115 113 119 104 113 120 115 128 118 119 146 156 146 140 135 132 129 129 127 131 136 139 138 134 128 130 127 128 130 131 133 135 136 136 136 136 138 139 141 143 144 145 148 149 148
134 82 128 146 132 129 119 107 103 103 113 113 99 121 147 146 131 124 123 120 128 130 132 137 142 147 149 145 135 133 131 131 133 139 142 140 141 142 143 145 146 147 148 149 151 155 159 162 161
131 139 176 171 146 136 127 121 118 108 108 104 108 120 136 134 130 131 136 138 139 139 151 151 150 155 159 153 144 145 141 138 139 146 151 152 152 154 151 152 151 151 151 153 157 159 162 162 155
145 155 159 140 133 130 126 122 113 121 126 139 140 146 145 134 132 135 140 145 148 147 144 144 148 150 147 139 144 153 154 150 147 147 154 153 149 153 154 158 159 156 152 158 156 161 163 161 160
124 140 137 131 125 125 127 124 118 129 149 150 147 149 146 138 141 143 143 145 140 140 144 144 143 131 131 134 140 146 149 149 153 153 150 147 140 139 150 157 161 162 161 159 166 163 159 160 156
99 101 105 116 117 122 120 125 127 132 142 143 144 145 145 144 145 147 145 144 141 144 144 145 141 134 130 128 139 141 149 149 154 154 153 147 138 135 142 152 156 164 163 163 161 157 152 148 140
126 105 100 110 114 124 122 125 118 145 146 146 149 151 152 151 150 145 141 143 148 148 147 141 135 134 126 124 122 125 138 143 139 149 150 147 149 145 135 135 143 160 168 167 164 157 143 138 129
93 90 75 109 115 125 114 112 144 154 151 152 157 157 157 157 155 155 156 155 154 150 150 148 146 137 128 126 125 125 136 139 137 145 143 146 151 149 138 132 136 159 161 147 133 122 120 122 119
64 76 90 226 117 131 111 151 169 159 154 158 162 163 162 163 164 162 158 156 153 149 150 154 149 137 131 127 125 125 136 138 144 144 140 143 148 146 135 131 144 160 142 131 124 118 111 109 107
29 120 194 277 146 142 110 164 181 168 158 163 167 167 165 165 167 167 164 160 156 153 152 150 142 143 140 131 125 120 124 130 140 139 140 136 141 145 140 143 151 136 118 121 135 119 125 121 111
213 190 205 210 212 131 128 176 172 176 167 169 169 168 171 170 175 171 165 158 152 150 150 151 149 151 142 124 108 100 98 113 134 139 145 142 143 142 138 138 134 123 113 109 113 120 119 127 125
177 178 191 217 184 123 157 183 187 183 176 173 173 173 175 176 176 169 164 159 153 149 151 154 153 157 145 132 131 130 141 142 137 148 149 150 148 141 137 136 135 137 133 135 128 123 112 107 115
169 179 199 219 162 132 162 200 200 191 188 180 176 178 180 174 170 169 167 163 163 163 162 160 161 163 162 158 155 157 155 159 160 152 147 160 159 159 152 146 148 138 133 129 125 124 123 129 134
196 182 191 176 117 80 100 354 228 225 190 183 182 180 179 178 176 175 173 170 167 170 172 170 169 168 168 160 140 122 97 80 92 127 160 172 162 156 149 148 143 139 143 153 153 143 138 153 186
234 209 176 163 125 159 139 183 248 220 211 199 191 187 185 183 179 178 176 173 175 177 176 172 170 169 171 161 151 150 153 158 181 173 174 164 154 157 152 144 144 142 142 151 165 153 152 151 181
215 181 144 147 125 85 47 123 256 201 207 207 198 193 190 185 181 179 179 176 174 172 173 176 170 172 173 165 158 155 153 164 160 144 148 154 137 145 144 144 142 139 143 155 147 139 147 157 167
163 87 64 62 76 52 242 163 245 209 205 196 194 191 187 182 177 175 173 166 166 167 167 169 166 175 173 164 161 161 162 159 151 156 161 171 169 123 135 145 143 144 146 159 166 160 154 158 159
101 99 54 10 29 245 253 190 242 231 204 189 189 189 187 183 177 173 171 169 169 168 170 170 169 175 175 168 171 172 171 166 167 171 171 169 166 176 194 169 161 161 171 173 169 161 173 172 168
196 143 157 191 203 245 302 239 258 240 208 181 178 179 180 178 177 175 176 175 174 174 172 171 172 175 176 174 178 176 174 170 173 176 171 171 177 190 186 173 168 165 166 171 158 157 187 176 183
170 171 167 144 143 124 280 288 309 12 139 138 147 157 175 179 176 177 176 177 176 175 174 172 173 175 181 183 178 177 176 174 175 177 169 169 178 183 177 169 167 169 166 165 153 150 176 165 186
165 157 101 120 146 173 250 252 237 217 178 175 170 171 175 173 173 175 177 179 176 175 172 169 172 178 181 182 183 184 179 175 171 166 170 175 182 181 164 161 163 164 161 151 141 153 158 137 196
210 118 114 123 150 151 194 255 221 193 178 164 175 178 170 169 174 174 174 176 171 167 168 171 175 176 180 184 182 175 174 173 167 170 176 176 170 167 169 167 159 150 146 144 138 151 151 146 167
188 175 144 148 197 157 162 252 249 188 176 163 164 165 165 169 168 165 167 169 170 171 170 173 176 178 182 181 176 177 172 166 170 177 177 169 166 168 171 162 157 159 154 148 150 159 146 146 157
Height
1494 1494 1495 1496 1499 1508 1509 1502 1496 1495 1497 1498 1497 1498 1500 1503 1507 1514 1510 1509 1509 1509 1509 1509 1508 1508 1508 1507 1507 1508 1508 1508 1509 1509 1510 1511 1512 1513 1514 1514 1515 1516 1518 1519 1520 1521 1523 1525 1526
1494 1495 1497 1497 1505 1519 1512 1500 1498 1497 1498 1498 1499 1500 1502 1505 1506 1507 1508 1510 1510 1509 1509 1509 1509 1508 1508 1508 1508 1509 1509 1510 1510 1511 1512 1513 1514 1515 1516 1517 1517 1519 1520 1521 1522 1524 1525 1527 1528
1494 1495 1498 1499 1507 1513 1509 1499 1497 1498 1498 1497 1500 1503 1505 1507 1507 1508 1509 1510 1510 1510 1510 1509 1509 1509 1509 1509 1509 1510 1510 1511 1512 1512 1513 1514 1515 1516 1517 1518 1519 1521 1522 1523 1525 1526 1528 1529 1530
1495 1497 1498 1504 1507 1499 1497 1496 1496 1498 1500 1500 1501 1505 1508 1510 1509 1509 1510 1511 1511 1511 1511 1511 1510 1510 1510 1510 1510 1511 1511 1512 1513 1514 1515 1516 1517 1518 1519 1520 1521 1523 1524 1526 1527 1528 1529 1530 1531
1496 1496 1502 1508 1503 1496 1494 1494 1495 1497 1500 1503 1502 1507 1511 1512 1511 1511 1512 1512 1512 1512 1512 1512 1512 1512 1512 1512 1512 1512 1512 1513 1513 1514 1516 1517 1518 1519 1521 1522 1523 1525 1526 1528 1529 1530 1532 1533 1534
1496 1497 1509 1512 1502 1497 1495 1496 1496 1499 1503 1505 1505 1508 1512 1514 1513 1513 1514 1514 1514 1514 1514 1514 1514 1514 1513 1513 1513 1513 1513 1514 1514 1515 1517 1518 1520 1521 1523 1524 1525 1527 1528 1530 1531 1532 1534 1535 1536
1496 1500 1506 1504 1503 1500 1498 1497 1498 1501 1504 1506 1506 1509 1513 1515 1515 1515 1516 1516 1516 1517 1516 1516 1516 1516 1515 1515 1513 1513 1514 1515 1516 1517 1518 1520 1521 1523 1524 1526 1527 1529 1530 1531 1533 1534 1535 1537 1538
1494 1498 1503 1503 1503 1502 1498 1498 1500 1501 1504 1507 1507 1509 1513 1516 1516 1517 1518 1518 1518 1519 1519 1519 1518 1518 1518 1517 1515 1515 1516 1517 1518 1519 1520 1521 1523 1525 1526 1528 1529 1530 1532 1533 1534 1535 1537 1538 1540
1493 1502 1508 1502 1501 1500 1497 1499 1503 1503 1505 1507 1508 1510 1513 1516 1517 1518 1519 1520 1520 1521 1521 1521 1521 1521 1520 1520 1519 1519 1520 1520 1521 1521 1522 1524 1525 1527 1528 1529 1531 1532 1533 1534 1535 1537 1538 1540 1541
1491 1503 1499 1491 1492 1495 1497 1499 1502 1506 1507 1509 1511 1514 1515 1517 1518 1519 1520 1521 1522 1522 1523 1523 1523 1523 1522 1522 1522 1522 1523 1523 1523 1523 1524 1525 1527 1528 1530 1531 1532 1533 1534 1535 1537 1538 1539 1541 1542
1488 1493 1489 1488 1490 1493 1497 1500 1502 1505 1509 1510 1511 1514 1516 1518 1520 1521 1521 1522 1523 1524 1524 1525 1525 1524 1524 1525 1525 1525 1525 1526 1526 1526 1527 1527 1528 1530 1531 1532 1534 1535 1536 1537 1538 1539 1541 1542 1543
1486 1486 1486 1489 1491 1493 1496 1500 1503 1504 1508 1509 1511 1514 1516 1518 1520 1521 1522 1524 1525 1525 1526 1526 1527 1527 1527 1527 1527 1527 1527 1528 1529 1529 1529 1529 1530 1531 1532 1533 1535 1536 1537 1538 1539 1541 1542 1543 1543
1486 1487 1488 1489 1492 1494 1497 1500 1503 1506 1508 1511 1513 1515 1517 1519 1521 1522 1524 1525 1526 1526 1527 1528 1528 1528 1528 1528 1529 1529 1529 1530 1530 1531 1531 1532 1532 1533 1533 1534 1536 1537 1538 1540 1541 1542 1543 1543 1544
1488 1488 1490 1491 1493 1496 1498 1502 1503 1508 1509 1512 1514 1516 1518 1519 1521 1523 1524 1525 1526 1527 1528 1529 1529 1529 1530 1530 1530 1531 1531 1532 1532 1533 1533 1534 1534 1534 1535 1536 1537 1538 1540 1541 1542 1543 1543 1544 1545
1489 1491 1493 1493 1494 1498 1500 1507 1505 1507 1510 1512 1514 1516 1518 1519 1521 1522 1524 1525 1526 1527 1529 1529 1530 1531 1531 1532 1532 1533 1533 1534 1534 1535 1535 1535 1535 1536 1537 1537 1538 1539 1540 1541 1542 1543 1544 1545 1545
1492 1498 1505 1497 1496 1499 1505 1517 1508 1508 1509 1512 1514 1516 1518 1519 1521 1522 1524 1525 1526 1528 1529 1530 1531 1532 1533 1533 1534 1534 1535 1535 1535 1536 1536 1537 1537 1538 1538 1539 1540 1540 1541 1542 1543 1543 1544 1545 1545
1502 1511 1509 1502 1496 1498 1504 1513 1508 1508 1509 1511 1514 1516 1517 1519 1521 1522 1524 1525 1526 1528 1529 1531 1532 1533 1533 1534 1535 1535 1536 1536 1537 1537 1538 1538 1538 1539 1539 1540 1541 1541 1542 1542 1543 1544 1544 1545 1546
1512 1511 1509 1506 1498 1498 1504 1507 1506 1507 1509 1510 1513 1515 1517 1518 1520 1522 1523 1525 1526 1528 1529 1531 1532 1533 1534 1534 1535 1536 1536 1537 1538 1538 1539 1539 1540 1540 1540 1541 1542 1542 1542 1543 1543 1544 1544 1545 1546
1495 1502 1506 1501 1495 1500 1505 1507 1506 1506 1508 1510 1512 1514 1516 1518 1520 1521 1523 1524 1526 1527 1529 1530 1532 1533 1534 1534 1535 1536 1537 1537 1538 1539 1540 1540 1540 1541 1541 1541 1542 1542 1543 1543 1543 1544 1544 1545 1546
1492 1501 1502 1498 1493 1499 1505 1507 1504 1504 1504 1506 1508 1511 1513 1515 1518 1520 1522 1523 1525 1526 1528 1530 1531 1532 1533 1534 1535 1536 1537 1538 1538 1539 1540 1540 1541 1541 1541 1541 1542 1542 1543 1543 1544 1544 1544 1545 1546
1491 1497 1499 1500 1496 1498 1507 1514 1509 1505 1505 1506 1506 1508 1509 1511 1514 1517 1520 1522 1523 1525 1527 1528 1530 1531 1533 1534 1535 1536 1537 1538 1539 1539 1540 1540 1541 1541 1541 1541 1542 1542 1543 1543 1544 1544 1545 1545 1546
1493 1483 1486 1493 1506 1517 1513 1531 1515 1508 1506 1505 1505 1505 1507 1510 1512 1514 1517 1519 1521 1524 1526 1528 1530 1531 1532 1533 1535 1536 1536 1537 1538 1539 1540 1540 1540 1540 1541 1541 1541 1542 1542 1543 1543 1544 1544 1545 1545
1482 1477 1483 1491 1504 1517 1516 1527 1519 1507 1508 1503 1502 1502 1504 1506 1509 1512 1514 1517 1520 1522 1524 1527 1529 1530 1531 1533 1534 1535 1536 1537 1538 1538 1539 1540 1540 1540 1540 1541 1541 1542 1542 1543 1543 1543 1544 1544 1544
1472 1480 1488 1499 1512 1529 1520 1526 1522 1507 1500 1498 1498 1499 1501 1504 1507 1510 1513 1516 1519 1521 1523 1526 1528 1529 1531 1532 1533 1534 1535 1536 1537 1538 1538 1538 1539 1540 1540 1541 1541 1541 1542 1542 1543 1543 1543 1543 1544
1475 1497 1521 1527 1536 1533 1516 1519 1515 1493 1489 1490 1492 1495 1498 1501 1504 1507 1511 1514 1516 1519 1522 1524 1526 1528 1529 1531 1533 1534 1535 1536 1536 1537 1537 1538 1538 1539 1540 1540 1540 1541 1541 1542 1542 1542 1542 1542 1543
1478 1491 1519 1533 1537 1531 1517 1519 1502 1486 1484 1485 1488 1492 1496 1499 1502 1504 1507 1511 1514 1516 1519 1522 1524 1526 1528 1529 1531 1533 1534 1535 1536 1537 1537 1538 1538 1539 1539 1540 1540 1540 1541 1541 1541 1541 1541 1541 1541
1476 1486 1488 1510 1520 1531 1525 1511 1495 1485 1485 1485 1486 1490 1493 1496 1500 1503 1505 1508 1511 1514 1517 1519 1522 1525 1527 1528 1530 1532 1533 1534 1535 1536 1537 1537 1538 1538 1539 1539 1539 1540 1540 1540 1540 1540 1540 1540 1540
1465 1474 1494 1510 1528 1535 1525 1516 1509 1493 1488 1486 1486 1487 1490 1493 1497 1500 1503 1506 1509 1512 1515 1518 1521 1523 1525 1527 1529 1530 1532 1533 1534 1535 1536 1536 1537 1538 1538 1538 1539 1539 1539 1539 1539 1539 1539 1539 1538
1470 1476 1489 1504 1510 1528 1534 1520 1487 1486 1484 1485 1485 1486 1487 1490 1494 1497 1501 1504 1507 1511 1513 1516 1519 1522 1524 1526 1527 1529 1530 1531 1533 1534 1534 1535 1536 1537 1538 1538 1538 1538 1538 1538 1538 1538 1538 1538 1537
1462 1471 1485 1502 1510 1513 1520 1513 1477 1479 1480 1481 1483 1485 1486 1488 1491 1495 1499 1502 1505 1508 1511 1514 1517 1520 1522 1524 1526 1527 1529 1530 1531 1532 1533 1534 1535 1536 1537 1537 1537 1537 1537 1537 1537 1537 1537 1536 1536